Wind_Speed
10 11 12 13 14 15 16 18 19 20 21 22 23 25 26 28 31 34 36 38 39 40 40 40 40 39 39 38 37 36 35 34 33 31 29 27 25 23 22 22 22 23 25
9 10 12 13 14 15 16 17 18 20 21 22 23 24 25 26 27 29 31 34 37 40 42 44 44 44 44 43 42 41 39 38 37 36 34 31 29 27 26 24 24 24 24
11 13 14 15 16 17 18 20 21 22 24 25 26 27 28 29 30 30 31 33 34 36 39 42 45 47 48 48 47 46 44 43 41 40 39 36 34 31 29 28 26 26 25
14 15 16 18 20 21 23 25 27 28 30 31 33 34 35 36 36 36 37 37 37 38 38 40 42 45 48 50 51 51 50 48 46 44 43 41 39 36 34 32 30 29 28
16 18 20 22 25 27 29 31 33 35 37 38 40 41 42 43 44 44 44 45 44 44 44 43 43 44 45 48 51 53 54 54 52 50 47 45 44 41 39 36 35 33 31
20 22 25 28 30 32 34 36 38 40 42 44 46 47 48 50 51 51 52 52 52 51 51 51 50 49 48 48 49 51 54 56 57 55 53 50 48 46 44 41 39 37 35
25 27 30 33 35 37 40 42 44 46 48 50 51 53 54 56 57 57 58 59 59 58 58 57 57 56 55 53 52 52 53 55 58 59 58 56 53 51 49 46 44 42 40
30 33 35 38 40 42 45 47 49 51 53 55 57 59 60 62 63 64 65 65 65 65 64 64 63 62 61 60 59 57 56 55 56 59 60 60 59 56 53 51 49 47 45
35 37 40 42 44 47 49 52 54 56 59 61 63 64 66 68 70 71 72 72 72 72 72 71 70 69 67 66 65 64 62 60 58 58 60 62 62 61 59 56 54 52 50
38 41 43 46 48 51 54 57 59 62 64 66 68 70 72 73 75 76 77 78 79 79 79 78 77 76 74 72 71 70 68 66 64 62 61 62 64 64 63 61 59 56 55
41 44 46 49 52 55 58 61 63 66 68 70 72 74 75 77 78 80 81 83 84 85 85 85 84 83 81 79 77 75 73 72 70 68 66 65 65 66 66 65 63 61 59
44 48 50 53 56 59 62 64 67 70 72 74 76 77 79 81 83 85 86 88 89 90 91 92 92 92 90 87 84 82 79 77 75 74 72 70 68 67 67 67 66 65 63
47 51 54 57 60 62 65 67 70 73 75 77 79 82 84 86 88 90 92 93 94 95 96 97 98 98 98 97 94 91 87 83 81 79 77 75 73 71 69 69 69 68 66
50 54 57 60 62 65 68 71 74 76 78 81 84 87 89 92 94 95 96 95 95 94 95 96 97 99 101 102 101 99 96 92 87 84 81 80 78 76 73 71 71 70 69
52 56 59 62 65 68 71 74 77 80 83 87 90 93 95 96 96 95 94 91 90 88 88 88 89 91 95 98 101 102 100 99 95 91 87 85 83 81 79 76 74 72 71
55 58 61 64 68 71 75 78 81 85 89 92 95 96 96 95 93 90 88 85 84 82 81 80 81 82 84 88 92 96 98 98 98 96 93 90 88 87 84 81 78 75 74
57 60 64 68 72 75 79 82 86 90 93 95 95 94 92 89 87 85 83 81 79 77 75 74 74 75 76 79 82 86 90 93 94 96 96 95 94 92 90 86 82 79 77
59 63 67 71 75 78 82 86 90 93 94 94 92 89 86 84 83 81 78 75 71 69 67 66 65 66 68 71 74 78 82 85 89 92 95 96 97 97 94 92 88 84 80
61 66 70 74 77 81 85 89 92 93 92 90 87 85 83 81 78 74 70 65 61 58 56 55 54 56 58 63 67 71 75 79 83 87 92 96 100 101 99 96 93 88 84
64 68 72 76 79 83 87 90 91 90 88 85 84 82 80 77 72 67 62 58 55 52 50 49 48 48 50 53 58 63 68 74 78 82 88 95 101 103 103 100 97 93 88
67 71 74 78 81 84 87 89 89 87 84 83 81 80 76 71 67 62 58 55 53 51 50 49 47 47 47 48 51 55 60 68 74 78 83 92 100 104 105 104 101 97 93
69 72 76 79 82 86 89 89 87 84 82 80 78 75 71 67 64 61 58 57 56 55 54 53 51 48 46 47 47 49 53 60 68 74 79 87 95 102 106 106 105 101 97
70 73 76 79 83 87 88 87 84 81 79 77 75 71 67 65 63 62 62 61 61 61 60 59 56 53 49 47 47 46 48 53 60 69 75 81 88 96 103 106 106 104 100
71 74 77 80 84 87 86 84 82 79 78 76 73 69 66 64 64 65 67 68 68 67 65 63 60 57 53 49 47 46 45 48 55 61 70 76 82 89 96 103 105 105 102
71 74 78 81 84 85 84 82 79 78 77 75 71 68 66 66 68 70 72 72 70 67 65 63 60 57 54 51 48 46 45 45 48 56 63 71 76 82 89 96 102 105 103
71 75 78 81 83 83 82 79 78 76 75 73 70 68 67 69 71 74 72 68 64 61 59 57 56 54 52 49 48 46 44 44 45 50 57 65 71 76 82 89 97 102 104
Wind_Direction
307 307 307 308 308 307 306 305 303 302 300 298 295 291 286 282 278 275 272 270 268 266 264 263 262 261 260 259 258 257 256 256 258 259 259 257 253 248 243 238 235 233 231
333 330 327 325 322 319 316 313 310 307 305 302 300 297 294 290 287 283 278 275 271 269 266 264 262 261 260 259 258 257 256 255 254 255 256 256 254 251 247 241 236 233 231
345 340 336 331 326 321 317 312 309 306 303 300 298 295 293 291 288 286 283 279 275 272 269 266 263 261 260 259 258 257 256 255 253 252 252 253 253 252 249 244 238 233 231
342 335 329 324 319 314 311 307 305 302 300 298 296 294 292 290 288 285 283 281 278 275 272 269 266 263 260 258 257 255 255 254 253 252 251 250 251 250 249 246 241 236 232
330 323 318 314 311 308 306 304 302 300 299 297 296 294 292 290 288 286 284 281 279 277 275 272 269 266 263 260 257 255 253 252 252 252 250 249 248 248 247 246 243 239 235
317 313 310 308 306 304 303 302 301 299 298 297 295 293 292 290 288 286 284 282 280 278 276 274 271 268 265 263 260 257 254 252 250 250 249 249 247 246 245 244 243 240 237
311 310 308 307 306 305 304 303 302 300 299 297 295 294 292 290 289 287 285 283 280 278 276 274 271 269 267 264 262 259 256 253 251 248 248 247 246 245 243 243 242 241 238
312 311 310 309 308 307 306 304 303 302 300 299 297 296 294 292 290 288 286 284 282 279 277 274 272 269 267 265 262 260 257 255 252 250 247 246 245 244 242 241 240 240 239
312 312 311 310 309 308 307 306 305 304 302 300 299 297 295 293 291 289 287 285 283 280 278 275 272 270 267 264 262 260 257 255 253 251 248 246 244 243 241 240 239 238 238
312 312 311 311 310 310 309 308 307 305 303 301 299 297 295 293 291 289 287 285 282 280 278 276 273 270 267 264 261 259 257 254 252 250 248 246 244 242 240 239 238 236 236
313 313 313 313 313 312 310 308 307 305 303 301 299 297 295 293 291 289 287 284 282 279 277 274 272 270 267 265 262 259 256 253 251 249 247 245 244 242 240 238 237 236 234
315 316 315 314 312 310 309 307 306 304 303 301 299 297 295 293 291 289 287 284 281 278 276 273 271 268 266 264 261 259 255 252 250 247 245 244 242 241 239 237 236 235 234
317 315 314 312 310 309 308 307 306 304 303 302 300 298 296 295 293 290 288 285 282 279 276 273 270 267 265 262 260 258 255 252 248 246 243 242 240 239 238 236 235 234 233
316 314 312 311 310 309 309 308 307 306 305 303 302 300 298 297 295 293 290 288 285 281 278 274 271 268 264 261 259 256 254 251 247 244 241 239 238 237 236 235 233 232 232
314 313 312 312 312 311 311 310 309 308 307 306 305 303 302 300 298 296 293 291 287 283 279 275 271 268 264 261 258 255 253 250 247 243 239 237 235 234 233 232 232 231 230
314 314 314 314 315 314 314 313 312 311 310 309 308 306 305 303 301 299 296 293 290 286 281 277 272 267 263 259 256 254 251 248 245 242 238 235 233 231 230 230 229 228 228
316 317 317 318 318 317 317 316 315 314 313 311 310 309 308 306 303 301 299 296 293 289 285 280 275 269 263 258 254 251 248 245 242 239 236 232 230 229 228 227 227 226 226
319 320 321 320 320 320 320 319 318 316 315 314 313 312 310 308 306 304 302 299 296 292 288 283 277 271 264 258 253 249 245 242 239 235 232 229 227 226 226 225 224 224 224
323 323 323 323 323 322 322 320 319 318 317 317 316 314 313 311 309 307 304 301 298 295 291 286 281 275 266 259 253 248 244 240 237 232 228 225 224 223 223 223 222 222 222
326 326 325 325 325 324 323 321 321 321 320 319 318 317 316 314 312 309 307 303 300 297 293 289 285 280 273 263 254 248 243 239 236 232 227 223 221 220 220 221 220 220 220
328 327 327 327 326 324 323 322 322 322 322 321 321 320 318 316 314 311 307 304 300 296 293 290 287 283 278 270 260 249 243 239 235 231 227 224 220 218 218 218 218 218 218
329 329 328 327 326 325 324 324 325 325 325 324 324 323 320 317 314 311 307 302 298 294 290 287 285 282 279 274 266 255 245 239 235 231 228 225 221 218 216 216 216 216 216
331 330 329 328 327 327 327 327 328 327 327 327 326 324 322 318 315 311 307 302 297 292 287 283 280 277 275 272 268 260 249 239 235 231 228 225 222 219 217 215 215 215 214
331 331 330 330 329 329 329 330 330 330 330 330 329 327 325 321 317 313 309 303 297 291 286 281 276 272 269 266 264 262 254 243 234 230 228 225 223 220 218 216 214 213 213
332 332 332 331 331 331 331 332 332 333 333 332 331 330 327 324 320 316 311 305 299 292 286 279 274 269 265 260 257 257 255 248 237 229 227 225 223 221 219 217 214 212 211
334 333 333 333 333 333 333 334 335 335 335 335 334 332 330 327 324 320 316 311 304 296 287 278 270 265 260 256 252 251 251 249 241 230 224 223 222 220 219 218 215 212 210
Height
5867 5866 5865 5864 5863 5862 5861 5860 5859 5858 5857 5856 5855 5855 5854 5853 5853 5852 5852 5851 5851 5851 5852 5852 5853 5854 5854 5855 5856 5856 5857 5858 5858 5859 5860 5861 5862 5863 5864 5866 5867 5868 5870
5865 5864 5863 5862 5861 5860 5859 5858 5856 5855 5853 5852 5851 5850 5848 5847 5846 5845 5844 5844 5843 5843 5843 5843 5844 5845 5846 5847 5848 5849 5851 5852 5853 5854 5855 5856 5857 5859 5860 5861 5863 5865 5866
5864 5863 5862 5861 5859 5858 5856 5855 5853 5851 5849 5848 5846 5844 5843 5841 5840 5839 5837 5836 5835 5834 5834 5834 5834 5835 5836 5838 5839 5841 5842 5844 5846 5847 5849 5850 5852 5854 5855 5857 5858 5860 5862
5863 5861 5860 5858 5856 5855 5853 5851 5849 5847 5845 5842 5840 5838 5836 5834 5832 5831 5829 5828 5827 5826 5825 5825 5824 5825 5825 5827 5828 5830 5832 5835 5837 5839 5842 5844 5846 5848 5850 5851 5853 5855 5857
5861 5859 5857 5855 5853 5851 5848 5846 5843 5841 5838 5836 5833 5830 5828 5825 5823 5822 5820 5818 5817 5816 5816 5815 5815 5815 5815 5815 5816 5818 5821 5824 5827 5830 5833 5835 5838 5840 5843 5845 5847 5849 5851
5859 5856 5854 5851 5848 5846 5843 5840 5837 5834 5831 5827 5824 5821 5818 5815 5812 5810 5808 5807 5806 5805 5804 5804 5803 5804 5804 5804 5805 5806 5808 5811 5814 5818 5822 5825 5829 5832 5835 5838 5840 5843 5845
5855 5852 5849 5846 5842 5839 5835 5832 5828 5825 5821 5817 5814 5810 5806 5803 5800 5797 5795 5793 5791 5790 5790 5790 5790 5790 5791 5792 5793 5794 5796 5798 5801 5805 5809 5814 5818 5822 5825 5829 5832 5835 5838
5850 5847 5843 5839 5835 5831 5827 5823 5819 5814 5810 5805 5801 5797 5792 5788 5785 5781 5778 5776 5774 5773 5773 5773 5773 5774 5775 5777 5778 5780 5782 5785 5788 5792 5796 5800 5805 5810 5814 5819 5822 5826 5830
5845 5841 5836 5832 5828 5823 5818 5813 5808 5803 5798 5792 5787 5782 5777 5772 5768 5763 5760 5757 5755 5753 5753 5752 5753 5755 5757 5759 5761 5764 5767 5771 5774 5778 5781 5785 5790 5796 5802 5807 5811 5816 5820
5839 5834 5830 5825 5819 5814 5808 5802 5796 5790 5785 5779 5773 5767 5761 5755 5750 5745 5740 5737 5734 5731 5730 5729 5730 5732 5735 5738 5741 5744 5749 5753 5758 5762 5766 5770 5775 5781 5788 5794 5799 5804 5809
5833 5828 5822 5816 5810 5804 5798 5791 5784 5778 5771 5764 5757 5750 5744 5737 5731 5725 5719 5715 5711 5708 5706 5704 5705 5707 5710 5714 5717 5722 5727 5733 5739 5744 5750 5754 5760 5766 5772 5779 5785 5792 5797
5826 5820 5813 5807 5801 5794 5787 5780 5772 5764 5756 5747 5740 5732 5724 5716 5709 5702 5696 5690 5685 5681 5678 5677 5677 5679 5682 5686 5691 5696 5703 5710 5717 5724 5731 5737 5743 5749 5756 5763 5770 5778 5785
5818 5812 5805 5798 5792 5784 5776 5768 5759 5750 5740 5730 5720 5711 5701 5692 5683 5675 5668 5662 5656 5651 5647 5646 5646 5648 5651 5655 5661 5668 5676 5684 5692 5701 5709 5716 5724 5732 5739 5747 5754 5762 5770
5811 5804 5797 5789 5781 5773 5763 5754 5744 5733 5722 5711 5699 5688 5677 5666 5655 5645 5637 5630 5624 5619 5615 5612 5612 5614 5617 5622 5628 5635 5645 5655 5665 5675 5685 5694 5703 5712 5720 5729 5737 5746 5755
5803 5796 5788 5779 5770 5760 5749 5738 5726 5714 5701 5688 5675 5661 5649 5637 5625 5614 5605 5597 5590 5585 5581 5579 5578 5579 5582 5586 5592 5601 5611 5622 5634 5647 5659 5669 5679 5690 5700 5709 5719 5729 5738
5795 5787 5777 5767 5757 5745 5733 5720 5707 5693 5678 5664 5649 5634 5620 5607 5596 5585 5575 5566 5559 5554 5549 5547 5546 5547 5548 5552 5558 5565 5576 5587 5601 5614 5629 5642 5654 5666 5678 5689 5700 5710 5721
5786 5776 5766 5754 5742 5729 5715 5700 5686 5671 5656 5640 5625 5610 5595 5582 5570 5559 5548 5539 5531 5525 5520 5517 5516 5516 5518 5521 5527 5533 5542 5553 5566 5580 5596 5612 5626 5640 5654 5667 5680 5691 5703
5775 5764 5753 5740 5726 5712 5697 5682 5666 5649 5633 5617 5602 5587 5573 5559 5547 5535 5525 5515 5507 5500 5495 5491 5489 5489 5490 5493 5498 5504 5512 5522 5534 5546 5563 5580 5597 5613 5628 5644 5658 5671 5684
5764 5752 5740 5726 5711 5697 5681 5664 5646 5629 5612 5596 5580 5566 5552 5538 5525 5514 5503 5494 5486 5480 5474 5470 5467 5465 5465 5467 5472 5478 5485 5494 5504 5516 5532 5548 5566 5584 5602 5619 5636 5651 5664
5753 5740 5726 5712 5697 5682 5666 5648 5630 5611 5594 5577 5561 5546 5532 5518 5506 5495 5485 5477 5469 5463 5458 5453 5449 5446 5445 5445 5449 5455 5461 5468 5477 5489 5504 5518 5535 5555 5575 5594 5612 5629 5644
5741 5728 5714 5699 5684 5669 5652 5634 5617 5598 5580 5562 5545 5528 5514 5500 5489 5478 5469 5461 5454 5448 5442 5437 5434 5431 5428 5427 5429 5434 5440 5445 5453 5465 5477 5491 5507 5527 5548 5568 5588 5606 5624
5731 5717 5702 5687 5671 5654 5636 5618 5599 5581 5564 5546 5530 5513 5498 5484 5473 5463 5454 5445 5438 5431 5426 5420 5417 5415 5413 5410 5411 5414 5421 5427 5433 5443 5453 5466 5483 5502 5521 5542 5563 5583 5602
5721 5706 5691 5675 5658 5640 5621 5603 5586 5569 5551 5534 5519 5502 5486 5471 5458 5446 5436 5427 5418 5411 5405 5401 5397 5396 5397 5395 5394 5396 5401 5408 5414 5423 5434 5446 5461 5477 5496 5516 5538 5559 5579
5711 5696 5680 5663 5645 5626 5607 5589 5571 5554 5538 5521 5504 5488 5473 5457 5443 5430 5417 5405 5394 5386 5380 5376 5374 5374 5376 5379 5379 5380 5384 5389 5397 5407 5416 5428 5441 5456 5473 5493 5514 5535 5556
5701 5685 5669 5651 5632 5613 5594 5575 5559 5541 5524 5508 5491 5476 5460 5445 5428 5411 5395 5380 5366 5357 5351 5348 5348 5350 5354 5359 5362 5365 5368 5373 5380 5389 5400 5411 5424 5438 5453 5471 5491 5513 5535
5691 5675 5658 5640 5621 5602 5583 5565 5548 5531 5514 5497 5481 5465 5449 5431 5412 5392 5371 5353 5338 5327 5321 5319 5322 5326 5331 5338 5344 5349 5354 5359 5365 5373 5384 5395 5407 5421 5435 5452 5471 5492 5513